[[{"header":{"parameterUnit":"m.s-1","parameterCategory":1,"la1":30.2992,"la2":30.254,"lo1":-89.0895,"lo2":-89.0443,"dy":0.0025,"dx":0.0025,"nx":19,"ny":19,"refTime":"2026-04-28T09:00:00:Z","depth":0,"parameterNumber":2,"parameterNumberName":"U-component_of_WINDS"},"data":[0,0,0,4.5057,4.506,4.5177,4.5177,4.5345,4.5346,0,0,0,0,0,0,0,0,0,0,0,4.5036,4.5038,4.5057,4.5061,4.5177,4.5177,4.5344,4.5346,0,0,0,0,0,0,0,0,0,0,0,4.5036,4.5037,4.504,4.5061,4.5177,4.5177,4.5344,4.5249,0,0,0,0,0,0,0,0,0,0,4.5133,4.5127,4.5037,4.504,4.5062,4.5177,4.5177,4.5244,4.5255,4.5301,0,4.5346,0,4.5349,4.5359,4.536,0,0,0,4.505,4.5118,4.5137,4.504,4.5063,4.5176,4.5121,4.525,4.5262,4.5315,4.5348,4.5354,4.5352,4.536,4.5361,4.5658,4.566,0,0,4.5044,4.5064,4.5129,4.5146,4.5131,4.5118,4.5125,4.5257,4.5294,4.5349,4.5357,4.5355,4.5361,4.5363,4.5656,4.5659,0,0,0,4.5032,4.506,4.5076,4.514,4.5159,4.5121,4.513,4.5288,4.5292,4.5359,4.5357,4.5362,4.5365,4.5654,4.5657,4.5767,0,0,0,4.5028,4.5053,4.5074,4.5087,4.5157,4.5226,4.5159,4.5283,4.5297,4.5356,4.5362,4.5367,4.5652,4.5656,4.5759,4.5815,0,0,0,4.5024,4.5053,4.5074,4.5088,4.5139,4.5223,4.5234,4.5285,4.5296,4.536,4.5367,4.5651,4.5655,4.5753,4.5804,4.5896,0,0,0,4.5026,4.5172,4.5076,4.5239,4.5138,4.5291,4.5233,4.5346,4.5414,4.5363,4.5652,4.5657,4.5751,4.5797,4.5889,4.5975,4.6014,0,0,4.5222,4.5197,4.529,4.5208,4.5383,4.5272,4.5462,4.5506,4.5493,4.5603,4.561,4.5762,4.5803,4.5894,4.6229,4.626,0,0,0,4.5359,4.5426,4.5468,4.5533,4.557,4.5604,4.5616,4.5632,4.5724,4.5555,4.5821,4.5845,4.5898,4.5938,4.5964,4.6006,4.5677,4.5677,4.5676,4.5664,4.564,4.5791,4.578,4.5844,4.5854,4.5902,4.5924,4.5883,4.5946,4.5977,4.6183,4.6231,4.6251,4.6295,4.6023,4.6024,4.6024,4.6024,4.5946,4.6036,4.5974,4.6099,4.6071,4.6176,4.6189,4.6155,4.6246,4.6158,4.6203,4.6106,4.6285,4.6322,4.6032,4.6031,4.603,4.6029,4.6029,4.6141,4.6179,4.6195,4.6285,4.6356,4.6339,4.6429,4.6401,4.6376,4.6421,4.6449,4.6447,4.6439,4.6437,4.6438,4.6438,4.6439,4.6439,4.644,4.6336,4.635,4.6429,4.6478,4.6514,4.6559,4.6568,4.6602,4.6633,4.6605,4.6605,4.6554,4.6309,4.6245,4.6451,4.6449,4.6447,4.6446,4.6446,4.6626,4.6555,4.6677,4.6714,4.6766,4.6837,4.68,4.6872,4.6897,4.6941,4.688,4.6704,4.6676,4.6655,4.6602,4.6888,4.6888,4.6888,4.6888,4.6787,4.6771,4.6887,4.6946,4.7001,4.698,4.7115,4.7123,4.7119,4.7132,4.7087,4.7016,4.6996,4.6979,4.6951,4.6901,4.7256,4.7257,4.7257,4.6962,4.6949,4.7071,4.7066,4.7105,4.7138,4.7263,4.7331,4.7313,4.7271,4.714,4.7125,4.7009,4.6974,4.6928,4.6885,4.6793,0,0]},{"header":{"parameterUnit":"m.s-1","parameterCategory":1,"la1":30.2992,"la2":30.254,"lo1":-89.0895,"lo2":-89.0443,"dy":0.0025,"dx":0.0025,"nx":19,"ny":19,"refTime":"2026-04-28T09:00:00:Z","depth":0,"parameterNumber":3,"parameterNumberName":"V-component_of_WINDS"},"data":[0,0,0,4.5315,4.5319,4.5504,4.5505,4.5736,4.5738,0,0,0,0,0,0,0,0,0,0,0,4.5258,4.5259,4.5314,4.5319,4.5504,4.5505,4.5735,4.5738,0,0,0,0,0,0,0,0,0,0,0,4.5257,4.5259,4.5261,4.532,4.5504,4.5505,4.5735,4.5597,0,0,0,0,0,0,0,0,0,0,4.5417,4.5364,4.5259,4.5261,4.5321,4.5504,4.5505,4.559,4.5605,4.565,0,4.569,0,4.5718,4.5753,4.5754,0,0,0,4.532,4.5351,4.5403,4.5261,4.5322,4.5504,4.5421,4.5599,4.5616,4.567,4.5694,4.5702,4.5722,4.5755,4.5756,4.6012,4.6013,0,0,4.5309,4.529,4.5391,4.5414,4.5388,4.5415,4.5427,4.5609,4.5633,4.5695,4.5708,4.5726,4.5756,4.5758,4.6011,4.6012,0,0,0,4.5279,4.5283,4.533,4.5405,4.5439,4.542,4.5434,4.5625,4.5642,4.571,4.5728,4.5757,4.576,4.601,4.6011,4.605,0,0,0,4.5273,4.5265,4.5326,4.5316,4.5435,4.5535,4.5446,4.563,4.5651,4.5727,4.5757,4.5762,4.6008,4.6011,4.6046,4.6071,0,0,0,4.5246,4.5262,4.5289,4.5314,4.5393,4.5532,4.556,4.5635,4.5662,4.5754,4.5763,4.6008,4.601,4.6043,4.6066,4.6132,0,0,0,4.5211,4.532,4.5289,4.5417,4.5392,4.5555,4.5559,4.5682,4.5765,4.5759,4.6009,4.6011,4.6042,4.6062,4.6128,4.6184,4.6206,0,0,4.5338,4.5335,4.5411,4.5389,4.5553,4.5529,4.5698,4.5793,4.5818,4.5945,4.5952,4.6047,4.6065,4.6131,4.6336,4.6353,0,0,0,4.5445,4.5499,4.5547,4.5627,4.5702,4.5768,4.5839,4.5874,4.5983,4.588,4.609,4.6102,4.6141,4.6169,4.6183,4.6218,4.6023,4.6023,4.6023,4.5595,4.5623,4.5751,4.5801,4.5878,4.5949,4.6013,4.6072,4.6077,4.6126,4.6164,4.6285,4.6316,4.6327,4.6363,4.6196,4.6196,4.6197,4.6197,4.5781,4.5863,4.5867,4.5993,4.6021,4.6127,4.6199,4.6199,4.63,4.6259,4.6295,4.6247,4.6345,4.6378,4.62,4.6199,4.6199,4.6199,4.6198,4.5882,4.5926,4.5967,4.6084,4.617,4.6216,4.6313,4.6335,4.6356,4.6392,4.6433,4.6433,4.6434,4.641,4.6411,4.6411,4.6412,4.6412,4.6412,4.597,4.6015,4.6095,4.6183,4.6236,4.6309,4.6381,4.6433,4.6497,4.6505,4.6505,4.6504,4.635,4.6311,4.6419,4.6418,4.6417,4.6416,4.6416,4.6147,4.611,4.6233,4.6287,4.6392,4.6475,4.6502,4.6606,4.6653,4.6699,4.6691,4.6574,4.6572,4.656,4.6528,4.6686,4.6686,4.6686,4.6686,4.6231,4.6232,4.6363,4.6446,4.6531,4.6567,4.6703,4.6759,4.6812,4.6841,4.6822,4.678,4.6768,4.6773,4.6757,4.6727,4.6932,4.6932,4.6932,4.6341,4.6351,4.6464,4.6516,4.6599,4.6669,4.6798,4.6891,4.6943,4.6943,4.6865,4.6854,4.6788,4.6765,4.6762,4.6737,4.6682,0,0]}]]